Flag for United Kingdom Past Weather in Lerwick (Shetland Islands), Scotland, United Kingdom — Yesterday and Last 2 Weeks

Now
47 °F

Overcast.


Feels Like: 41 °F
Forecast: N/A
Wind: 12 mph from West

Location: Lerwick

Current Time: Dec 4, 2016 at 6:31:27 pm

Latest Report: Dec 4, 2016 at 5:00 pm


Visibility: 25 mi

Pressure: 30.27 "Hg

Humidity: 85%

Dew Point: 42 °F

Location of Lerwick (Shetland Islands)Location

Past Weather in Lerwick (Shetland Islands) — Graph

°F

Lerwick (Shetland Islands) Temperature Yesterday

Maximum temperature yesterday: 46 °F (at 12:00 pm)
Minimum temperature yesterday: 42 °F (at 1:00 am)
Average temperature yesterday: 44 °F

High & Low Weather Summary for the Past Weeks

 TemperatureHumidityPressure
High50 °F (Nov 25, 7:00 pm)99% (Nov 25, 4:00 pm)30.53 "Hg (Nov 25, 4:00 pm)
Low30 °F (Nov 20, 2:00 am)55% (Nov 27, 7:00 am)29.23 "Hg (Nov 19, 5:00 pm)
Average42 °F84%30.04 "Hg
* Reported Nov 19 5:00 pm — Dec 4 5:00 pm, Lerwick (Shetland Islands), Weather by CustomWeather, © 2016

Note: Actual official high and low records may vary slightly from our data, if they occured in-between our weather recording intervals... More about our weather records

Advertising

Lerwick (Shetland Islands) Weather History for the Previous 24 Hours

Scroll right to see more
 ConditionsComfort  
Time TempWeatherWind HumidityBarometerVisibility
5:00 pm
Sun, Dec 4
47 °FOvercast.12 mph85%30.27 "Hg25 mi
4:00 pm46 °FOvercast.9 mph86%30.26 "Hg22 mi
3:00 pm46 °FOvercast.13 mph86%30.26 "Hg25 mi
2:00 pm46 °FOvercast.13 mph86%30.26 "Hg22 mi
1:00 pm47 °FOvercast.12 mph82%30.27 "Hg31 mi
12:00 pm46 °FOvercast.9 mph82%30.27 "Hg25 mi
11:00 am47 °FOvercast.12 mph78%30.27 "Hg28 mi
10:00 am47 °FOvercast.15 mph78%30.27 "Hg31 mi
8:00 am47 °FOvercast.13 mph84%30.26 "Hg19 mi
7:00 am47 °FOvercast.14 mph86%30.25 "Hg22 mi
6:00 am46 °FOvercast.10 mph87%30.25 "Hg19 mi
5:00 am44 °FOvercast.10 mph88%30.25 "Hg19 mi
4:00 am44 °FQuite cool.12 mph87%30.25 "Hg34 mi
3:00 am45 °FPassing clouds.14 mph86%30.25 "Hg28 mi
2:00 am44 °FPassing clouds.12 mph88%30.25 "Hg28 mi
1:00 am45 °FOvercast.10 mph93%30.25 "Hg22 mi
12:00 am45 °FOvercast.12 mph95%30.25 "Hg16 mi
11:00 pm
Sat, Dec 3
44 °FSprinkles. Low clouds.7 mph90%30.25 "Hg9 mi
10:00 pm45 °FSprinkles. Low clouds.9 mph96%30.25 "Hg6 mi
9:00 pm46 °FSprinkles. Overcast.8 mph93%30.24 "Hg2 mi
8:00 pm45 °FOvercast.8 mph95%30.24 "Hg16 mi
7:00 pm46 °FSprinkles. Overcast.9 mph91%30.23 "Hg9 mi
6:00 pm44 °FOvercast.7 mph93%30.23 "Hg19 mi
Weather by CustomWeather, © 2016

See weather overviewHow to use our weather pages